KB1JDX Weather Reports


time (UTC)temp
C
wind
direction
speed
KPH
gust
KPH
rain 1hr
cm
rain 24hr
cm
rain mn
cm
humidity
%
barometer
mb
20260902023204 16 167 0.0 0.0 0.00 0.00 0.00 100 1018.8
20260902023101 16 167 0.0 0.0 0.00 0.00 0.00 100 1018.7
20260902021204 16 167 0.0 0.0 0.00 0.00 0.00 100 1018.5
20260902015204 16 167 0.0 0.0 0.00 0.00 0.00 100 1018.5
20260902015101 16 167 0.0 0.0 0.00 0.00 0.00 100 1018.4
20260902013604 16 167 0.0 0.0 0.00 0.00 0.00 100 1018.5
20260902013101 16 167 0.0 0.0 0.00 0.00 0.00 100 1018.5
20260902012805 16 167 0.0 0.0 0.00 0.00 0.00 100 1018.5
20260902012404 16 167 0.0 0.0 0.00 0.00 0.00 100 1018.5
20260902012205 16 167 0.0 0.0 0.00 0.00 0.00 100 1018.5
20260902012101 16 167 0.0 0.0 0.00 0.00 0.00 100 1018.5
20260901153219 18 341 0.0 11.3 0.00 0.00 0.00 100 1016.6
20260901153114 18 59 0.0 11.3 0.00 0.00 0.00 100 1016.6
20260901151219 19 148 0.0 11.3 0.00 0.00 0.00 100 1016.8
20260901145220 19 194 0.0 0.0 0.00 0.00 0.00 100 1016.9
20260901143219 19 319 0.0 0.0 0.00 0.00 0.00 100 1016.6
20260901143114 19 319 0.0 0.0 0.00 0.00 0.00 100 1016.6
20260901141219 19 323 0.0 0.0 0.00 0.00 0.00 100 1016.9
20260901135219 19 327 0.0 0.0 0.00 0.00 0.00 100 1016.7
20260901133220 19 327 0.0 0.0 0.00 0.00 0.00 100 1016.7
20260901133114 19 327 0.0 0.0 0.00 0.00 0.00 100 1016.7
20260901131221 19 327 0.0 0.0 0.00 0.00 0.00 100 1016.7
20260901123219 19 339 0.0 0.0 0.00 0.00 0.00 100 1016.8
20260901123114 19 339 0.0 0.0 0.00 0.00 0.00 100 1016.9
20260901121220 19 339 0.0 0.0 0.00 0.00 0.00 100 1016.9
20260901113219 18 339 0.0 0.0 0.00 0.00 0.00 100 1016.8
20260901113114 18 339 0.0 0.0 0.00 0.00 0.00 100 1016.7
20260901105219 18 339 0.0 0.0 0.00 0.00 0.00 100 1016.6
20260901103219 18 217 0.0 0.0 0.00 0.00 0.00 100 1016.4
20260901103114 18 217 0.0 0.0 0.00 0.00 0.00 100 1016.5
20260901101219 18 217 0.0 0.0 0.00 0.00 0.00 100 1016.2
20260901095219 18 217 0.0 0.0 0.00 0.00 0.00 100 1016.4
20260901093219 18 217 0.0 0.0 0.00 0.00 0.00 100 1016.6
20260901093114 18 217 0.0 0.0 0.00 0.00 0.00 100 1016.5
20260901091219 18 217 0.0 0.0 0.00 0.00 0.00 100 1016.6
20260901085219 18 217 0.0 0.0 0.00 0.00 0.00 100 1016.6
20260901083219 18 217 0.0 0.0 0.00 0.00 0.00 100 1016.6
20260901083114 18 217 0.0 0.0 0.00 0.00 0.00 100 1016.7
20260901081220 18 217 0.0 0.0 0.00 0.00 0.00 100 1017.0
20260901073219 18 217 0.0 0.0 0.00 0.00 0.00 100 1017.2
20260901073114 18 217 0.0 0.0 0.00 0.00 0.00 100 1017.2
20260901071219 18 217 0.0 0.0 0.00 0.00 0.00 100 1017.4
20260901065219 18 217 0.0 0.0 0.00 0.00 0.00 100 1017.2
20260901063219 18 217 0.0 0.0 0.00 0.00 0.00 100 1017.1
20260901063114 18 217 0.0 0.0 0.00 0.00 0.00 100 1017.1
20260901061219 18 217 0.0 0.0 0.00 0.00 0.00 100 1017.6
20260901055219 18 217 0.0 0.0 0.00 0.00 0.00 100 1017.7
20260901053114 18 217 0.0 0.0 0.00 0.00 0.00 100 1017.8
20260901051220 18 217 0.0 0.0 0.00 0.00 0.00 100 1017.7
20260901045219 18 217 0.0 0.0 0.00 0.00 0.00 100 1018.2
20260901043219 19 217 0.0 0.0 0.00 0.00 0.00 100 1018.1
20260901043114 19 217 0.0 0.0 0.00 0.00 0.00 100 1018.2
20260901041219 19 217 0.0 0.0 0.00 0.00 0.00 100 1018.1
20260901035219 19 217 0.0 0.0 0.00 0.00 0.00 100 1018.2
20260901033219 19 217 0.0 0.0 0.00 0.00 0.00 100 1018.5
20260901033114 19 217 0.0 0.0 0.00 0.00 0.00 100 1018.5
20260901031219 19 217 0.0 0.0 0.00 0.00 0.00 100 1018.5